Harlan, KY

5:39 PM EDT on May 25, 2017 (GMT -0400)
Harlan

Weather History for KI35 - January, 2013

Change the Weather History Date:

Monday, January 28, 2013

  Actual Average (KLOZ) Record (KLOZ)
Temperature  
Mean Temperature 47 °F -  
Max Temperature 53 °F 44 °F 68 °F (1975)
Min Temperature 41 °F 23 °F -18 °F (1963)
Degree Days  
Heating Degree Days 18    
Moisture  
Dew Point 40 °F    
Average Humidity 75    
Maximum Humidity 94    
Minimum Humidity 66    
Precipitation  
Precipitation 0.00 in - - ()
Sea Level Pressure  
Sea Level Pressure 30.25 in    
Wind  
Wind Speed 3 mph (ENE)    
Max Wind Speed 12 mph    
Max Gust Speed 20 mph    
Visibility 9 miles    
Events      
Averages and records for this station are not official NWS values.
T = Trace of Precipitation, MM = Missing Value Source: NWS Daily Summary

Daily Weather History Graph

Daily Weather History Graph

Search for Another Location

Airport or City:

Trip Planner

Search our weather history database for the weather conditions in past years. The results will help you decide how hot, cold, wet, or windy it might be!

Date:

Astronomy

Jan. 28, 2013 Rise Set
Actual Time 7:38 AM EST 5:54 PM EST
Civil Twilight 7:11 AM EST 6:22 PM EST
Nautical Twilight 6:39 AM EST 6:53 PM EST
Astronomical Twilight 6:09 AM EST 7:24 PM EST
Moon 7:44 PM EST (1/28) 8:07 AM EST (1/28)
Length of Visible Light 11h 11m
Length of Day
10h 16m
Full, 98% of the Moon is Illuminated
Jan 28
Full
Feb 3
Last Quarter
Feb 10
New
Feb 17
First Quarter
Feb 25
Full

Hourly Weather History & Observations

Time (EST) Temp. Windchill Dew Point Humidity Pressure Visibility Wind Dir Wind Speed Gust Speed Precip Events Conditions
12:15 AM 42.8 °F 41.1 °F 32.0 °F 66% 30.29 in 10.0 mi East 3.5 mph - N/A   Overcast
12:35 AM 42.8 °F 41.1 °F 32.0 °F 66% 30.29 in 10.0 mi East 3.5 mph - N/A   Overcast
12:55 AM 42.8 °F 39.3 °F 33.8 °F 70% 30.28 in 10.0 mi East 5.8 mph - N/A   Overcast
1:15 AM 42.8 °F - 33.8 °F 70% 30.28 in 10.0 mi Calm Calm - N/A   Overcast
1:35 AM 42.8 °F - 33.8 °F 70% 30.28 in 10.0 mi Calm Calm - N/A   Overcast
1:55 AM 42.8 °F 41.1 °F 33.8 °F 70% 30.28 in 10.0 mi East 3.5 mph - N/A   Overcast
2:15 AM 42.8 °F - 33.8 °F 70% 30.29 in 10.0 mi Calm Calm - N/A   Overcast
2:35 AM 42.8 °F - 33.8 °F 70% 30.29 in 10.0 mi Calm Calm - N/A   Overcast
2:55 AM 42.8 °F - 33.8 °F 70% 30.28 in 10.0 mi Calm Calm - N/A   Overcast
3:15 AM 42.8 °F - 33.8 °F 70% 30.30 in 10.0 mi Calm Calm - N/A   Mostly Cloudy
3:35 AM 42.8 °F - 33.8 °F 70% 30.30 in 10.0 mi Calm Calm - N/A   Overcast
3:55 AM 42.8 °F 41.1 °F 33.8 °F 70% 30.29 in 10.0 mi East 3.5 mph - N/A   Overcast
4:15 AM 42.8 °F 40.1 °F 33.8 °F 70% 30.29 in 10.0 mi ENE 4.6 mph - N/A   Mostly Cloudy
4:35 AM 42.8 °F 40.1 °F 32.0 °F 66% 30.29 in 10.0 mi East 4.6 mph - N/A   Overcast
4:55 AM 42.8 °F 40.1 °F 33.8 °F 70% 30.29 in 10.0 mi East 4.6 mph - N/A   Overcast
5:15 AM 42.8 °F - 32.0 °F 66% 30.29 in 10.0 mi Calm Calm - N/A   Overcast
5:35 AM 41.0 °F - 33.8 °F 76% 30.29 in 10.0 mi Calm Calm - N/A   Overcast
5:55 AM 41.0 °F - 32.0 °F 70% 30.29 in 10.0 mi Calm Calm - N/A   Scattered Clouds
6:15 AM 41.0 °F - 32.0 °F 70% 30.29 in 10.0 mi Calm Calm - N/A   Clear
6:35 AM 42.8 °F 41.1 °F 32.0 °F 66% 30.29 in 10.0 mi NE 3.5 mph - N/A   Clear
6:55 AM 41.0 °F 38.0 °F 32.0 °F 70% 30.30 in 10.0 mi ENE 4.6 mph - N/A   Clear
7:15 AM 42.8 °F - 32.0 °F 66% 30.30 in 10.0 mi Calm Calm - N/A   Clear
7:35 AM 42.8 °F 41.1 °F 32.0 °F 66% 30.30 in 10.0 mi ENE 3.5 mph - N/A   Clear
7:55 AM 42.8 °F 41.1 °F 32.0 °F 66% 30.30 in 10.0 mi East 3.5 mph - N/A   Scattered Clouds
8:15 AM 42.8 °F 40.1 °F 32.0 °F 66% 30.31 in 10.0 mi East 4.6 mph - N/A   Scattered Clouds
8:35 AM 42.8 °F 40.1 °F 33.8 °F 70% 30.31 in 10.0 mi ENE 4.6 mph - N/A   Clear
8:55 AM 44.6 °F 42.2 °F 33.8 °F 66% 30.31 in 10.0 mi East 4.6 mph - N/A   Scattered Clouds
9:15 AM 46.4 °F 44.3 °F 35.6 °F 66% 30.30 in 10.0 mi ESE 4.6 mph - N/A   Mostly Cloudy
9:35 AM 46.4 °F 45.2 °F 35.6 °F 66% 30.30 in 10.0 mi East 3.5 mph - N/A   Overcast
9:55 AM 46.4 °F - 35.6 °F 66% 30.30 in 10.0 mi Calm Calm - N/A   Overcast
10:15 AM 48.2 °F - 37.4 °F 66% 30.30 in 10.0 mi East 4.6 mph - N/A   Overcast
10:35 AM 48.2 °F - 37.4 °F 66% 30.30 in 10.0 mi ENE 3.5 mph - N/A   Overcast
10:55 AM 48.2 °F - 37.4 °F 66% 30.29 in 10.0 mi ENE 3.5 mph - N/A   Overcast
11:15 AM 50.0 °F - 39.2 °F 66% 30.29 in 10.0 mi ENE 3.5 mph - N/A   Overcast
11:35 AM 50.0 °F - 39.2 °F 66% 30.29 in 10.0 mi East 3.5 mph - N/A   Overcast
11:55 AM 50.0 °F - 39.2 °F 66% 30.29 in 10.0 mi Calm Calm - N/A   Overcast
12:15 PM 50.0 °F - 41.0 °F 71% 30.27 in 10.0 mi NE 3.5 mph - N/A   Overcast
12:35 PM 51.8 °F - 41.0 °F 67% 30.26 in 10.0 mi NNW 3.5 mph - N/A   Overcast
12:55 PM 51.8 °F - 42.8 °F 71% 30.25 in 10.0 mi Calm Calm - N/A   Overcast
1:15 PM 51.8 °F - 44.6 °F 76% 30.24 in 10.0 mi WSW 5.8 mph - N/A   Overcast
1:35 PM 53.6 °F - 46.4 °F 77% 30.23 in 10.0 mi WSW 8.1 mph 17.3 mph N/A   Overcast
1:55 PM 53.6 °F - 46.4 °F 77% 30.22 in 10.0 mi WSW 8.1 mph 17.3 mph N/A   Overcast
2:15 PM 53.6 °F - 46.4 °F 77% 30.22 in 10.0 mi WSW 10.4 mph 19.6 mph N/A   Overcast
2:35 PM 53.6 °F - 46.4 °F 77% 30.21 in 10.0 mi WSW 3.5 mph - N/A   Overcast
2:55 PM 53.6 °F - 46.4 °F 77% 30.20 in 10.0 mi WNW 5.8 mph 16.1 mph N/A   Overcast
3:15 PM 53.6 °F - 46.4 °F 77% 30.21 in 10.0 mi West 11.5 mph - N/A   Overcast
3:35 PM 53.6 °F - 46.4 °F 77% 30.20 in 10.0 mi West 8.1 mph - N/A   Overcast
3:55 PM 53.6 °F - 46.4 °F 77% 30.21 in 10.0 mi West 8.1 mph - N/A   Overcast
4:15 PM 51.8 °F - 46.4 °F 82% 30.21 in 7.0 mi WNW 5.8 mph - N/A   Overcast
4:35 PM 51.8 °F - 46.4 °F 82% 30.21 in 10.0 mi West 4.6 mph - N/A   Overcast
4:55 PM 51.8 °F - 46.4 °F 82% 30.21 in 10.0 mi West 4.6 mph - N/A   Overcast
5:15 PM 51.8 °F - 46.4 °F 82% 30.20 in 10.0 mi West 4.6 mph - N/A   Overcast
5:35 PM 51.8 °F - 46.4 °F 82% 30.20 in 10.0 mi Calm Calm - N/A   Overcast
5:55 PM 51.8 °F - 46.4 °F 82% 30.20 in 10.0 mi Calm Calm - N/A   Overcast
6:15 PM 51.8 °F - 46.4 °F 82% 30.21 in 10.0 mi Calm Calm - N/A   Overcast
6:35 PM 50.0 °F - 46.4 °F 87% 30.21 in 10.0 mi Calm Calm - N/A   Overcast
6:55 PM 50.0 °F - 46.4 °F 87% 30.21 in 7.0 mi NE 3.5 mph - N/A   Overcast
7:15 PM 50.0 °F - 46.4 °F 87% 30.21 in 10.0 mi NE 5.8 mph - N/A   Overcast
7:35 PM 50.0 °F - 46.4 °F 87% 30.21 in 10.0 mi NE 3.5 mph - N/A   Overcast
7:55 PM 50.0 °F - 46.4 °F 87% 30.21 in 5.0 mi Calm Calm - N/A   Overcast
8:15 PM 51.8 °F - 46.4 °F 82% 30.21 in 10.0 mi NE 3.5 mph - N/A   Overcast
8:35 PM 50.0 °F - 46.4 °F 87% 30.21 in 7.0 mi NE 3.5 mph - N/A   Overcast
8:55 PM 50.0 °F - 46.4 °F 87% 30.21 in 7.0 mi ESE 4.6 mph - N/A   Overcast
9:15 PM 50.0 °F - 46.4 °F 87% 30.21 in 7.0 mi ENE 3.5 mph - N/A   Overcast
9:35 PM 50.0 °F - 46.4 °F 87% 30.21 in 5.0 mi NE 5.8 mph - N/A   Overcast
9:55 PM 50.0 °F - 46.4 °F 87% 30.21 in 7.0 mi Calm Calm - N/A   Overcast
10:15 PM 50.0 °F - 48.2 °F 94% 30.21 in 7.0 mi Calm Calm - N/A   Overcast
10:35 PM 50.0 °F - 48.2 °F 94% 30.21 in 5.0 mi Calm Calm - N/A   Overcast
10:55 PM 50.0 °F - 48.2 °F 94% 30.20 in 7.0 mi NE 3.5 mph - N/A   Overcast
11:15 PM 50.0 °F - 46.4 °F 87% 30.20 in 5.0 mi Calm Calm - N/A   Overcast
11:35 PM 50.0 °F - 46.4 °F 87% 30.21 in 1.2 mi ESE 3.5 mph - N/A   Overcast
11:55 PM 48.2 °F - 46.4 °F 93% 30.21 in 5.0 mi East 3.5 mph - N/A   Overcast